EW1914 Weather Reports


Display with metric or nautical units.
time (UTC)temp
F
wind
direction
speed
MPH
gust
MPH
rain 1hr
in
rain 24hr
in
rain mn
in
humidity
%
barometer
mb
20260505194959 62 0.0 0.0 0.00 0.00 0.00 76 1015.9
20260505194000 61 0.0 0.0 0.00 0.00 0.00 80 1016.0
20260505193000 61 0.0 0.0 0.00 0.00 0.00 82 1016.0
20260505191958 60 0.0 0.0 0.00 0.00 0.00 83 1016.1
20260505190959 59 0.0 0.0 0.00 0.00 0.00 85 1016.1
20260505183959 58 0.0 0.0 0.00 0.00 0.00 87 1016.1
20260505183000 58 0.0 0.0 0.00 0.00 0.00 88 1016.1
20260505181959 58 0.0 0.0 0.00 0.00 0.00 88 1016.1
20260505180958 58 0.0 0.0 0.00 0.00 0.00 89 1016.0
20260505175959 58 0.0 0.0 0.00 0.00 0.00 89 1016.0
20260505174957 57 0.0 0.0 0.00 0.00 0.00 89 1016.0
20260505173957 57 0.0 0.0 0.00 0.00 0.00 89 1016.0
20260505172959 57 0.0 0.0 0.00 0.00 0.00 90 1015.9
20260505171957 57 0.0 0.0 0.00 0.00 0.00 90 1015.8
20260505170959 57 0.0 0.0 0.00 0.00 0.00 91 1015.7
20260505165959 57 0.0 0.0 0.00 0.00 0.00 91 1015.7
20260505164958 57 0.0 0.0 0.00 0.00 0.00 92 1015.6
20260505163958 56 0.0 0.0 0.00 0.00 0.00 92 1015.7
20260505162959 56 0.0 0.0 0.00 0.00 0.00 91 1015.5
20260505161957 56 0.0 0.0 0.00 0.00 0.00 92 1015.6
20260505151959 56 0.0 0.0 0.00 0.00 0.00 90 1015.5
20260505150958 56 0.0 0.0 0.00 0.00 0.00 89 1015.4
20260505124959 56 0.0 0.0 0.00 0.00 0.00 84 1014.4
20260505123958 56 0.0 0.0 0.00 0.00 0.00 84 1014.3
20260505122959 56 0.0 0.0 0.00 0.00 0.00 84 1014.3
20260505121958 56 0.0 0.0 0.00 0.00 0.00 84 1014.3
20260505120958 56 0.0 0.0 0.00 0.00 0.00 84 1014.3
20260505115958 57 0.0 0.0 0.00 0.00 0.00 83 1014.3
20260505113958 57 0.0 0.0 0.00 0.00 0.00 83 1014.2
20260505111957 57 0.0 0.0 0.00 0.00 0.00 83 1014.2
20260505095958 58 0.0 0.0 0.00 0.00 0.00 81 1013.7
20260505094957 58 0.0 0.0 0.00 0.00 0.00 82 1013.8
20260505093957 58 0.0 0.0 0.00 0.00 0.00 83 1013.7
20260505092959 58 0.0 0.0 0.00 0.00 0.00 83 1013.5
20260505090957 58 0.0 0.0 0.00 0.00 0.00 83 1013.4
20260505090000 58 0.0 0.0 0.00 0.00 0.00 83 1013.2
20260505084958 58 0.0 0.0 0.00 0.00 0.00 82 1013.3
20260505083958 58 0.0 0.0 0.00 0.00 0.00 82 1013.2
20260505081957 59 0.0 0.0 0.00 0.00 0.00 82 1013.2
20260505080957 59 0.0 0.0 0.00 0.00 0.00 82 1013.1
20260505080002 59 0.0 0.0 0.00 0.00 0.00 81 1013.0
20260505074000 59 0.0 0.0 0.00 0.00 0.00 81 1012.7
20260505073000 60 0.0 0.0 0.00 0.00 0.00 80 1012.7
20260505072000 60 0.0 0.0 0.00 0.00 0.00 80 1012.5
20260505070959 60 0.0 0.0 0.00 0.00 0.00 80 1012.4
20260505070001 60 0.0 0.0 0.00 0.00 0.00 79 1012.4
20260505064959 61 0.0 0.0 0.00 0.00 0.00 78 1012.3
20260505063959 61 0.0 0.0 0.00 0.00 0.00 78 1012.0
20260505063000 61 0.0 0.0 0.00 0.00 0.00 77 1011.9
20260505061959 62 0.0 0.0 0.00 0.00 0.00 77 1011.7
20260505060959 62 0.0 0.0 0.00 0.00 0.00 76 1011.6
20260505060005 63 0.0 0.0 0.00 0.00 0.00 75 1011.5
20260505054958 63 0.0 0.0 0.00 0.00 0.00 75 1011.6
20260505054000 63 0.0 0.0 0.00 0.00 0.00 74 1011.5
20260505053002 64 0.0 0.0 0.00 0.00 0.00 73 1011.4
20260505050959 65 0.0 0.0 0.00 0.00 0.00 71 1011.3
20260505040958 69 0.0 0.0 0.00 0.00 0.00 67 1010.5
20260505034959 70 0.0 0.0 0.00 0.00 0.00 66 1010.1
20260505033959 71 0.0 0.0 0.00 0.00 0.00 68 1009.9
20260505033001 71 0.0 0.0 0.00 0.00 0.00 68 1009.6
20260505032001 71 0.0 0.0 0.00 0.00 0.00 68 1009.4
20260505031000 71 0.0 0.0 0.00 0.00 0.00 68 1009.3
20260505030002 72 0.0 0.0 0.00 0.00 0.00 68 1009.2
20260505023000 73 0.0 0.0 0.00 0.00 0.00 65 1009.0
20260505020959 74 0.0 0.0 0.00 0.00 0.00 65 1009.0
20260505014959 74 0.0 0.0 0.00 0.00 0.00 63 1009.1
20260505013959 74 0.0 0.0 0.00 0.00 0.00 63 1009.0
20260505013006 74 0.0 0.0 0.00 0.00 0.00 62 1009.1
20260505012000 75 0.0 0.0 0.00 0.00 0.00 62 1009.2
20260505010959 75 0.0 0.0 0.00 0.00 0.00 60 1009.3
20260505010006 75 0.0 0.0 0.00 0.00 0.00 61 1009.3
20260505004958 75 0.0 0.0 0.00 0.00 0.00 61 1009.4
20260505003959 76 0.0 0.0 0.00 0.00 0.00 59 1009.4
20260505003005 76 0.0 0.0 0.00 0.00 0.00 60 1009.4
20260505001959 76 0.0 0.0 0.00 0.00 0.00 59 1009.5
20260505000959 76 0.0 0.0 0.00 0.00 0.00 60 1009.5
20260504235000 76 0.0 0.0 0.00 0.00 0.00 57 1009.7
20260504233959 76 0.0 0.0 0.00 0.00 0.00 56 1009.7
20260504233001 76 0.0 0.0 0.00 0.00 0.00 57 1009.8
20260504230959 76 0.0 0.0 0.00 0.00 0.00 57 1010.0
20260504230001 76 0.0 0.0 0.00 0.00 0.00 56 1010.1
20260504224958 75 0.0 0.0 0.00 0.00 0.00 57 1010.2
20260504223959 75 0.0 0.0 0.00 0.00 0.00 58 1010.3
20260504223000 75 0.0 0.0 0.00 0.00 0.00 56 1010.5
20260504221959 74 0.0 0.0 0.00 0.00 0.00 59 1010.7
20260504220959 73 0.0 0.0 0.00 0.00 0.00 59 1010.8
20260504220000 73 0.0 0.0 0.00 0.00 0.00 60 1010.9
20260504211958 71 0.0 0.0 0.00 0.00 0.00 62 1011.3
20260504210000 70 0.0 0.0 0.00 0.00 0.00 64 1011.7
20260504204959 70 0.0 0.0 0.00 0.00 0.00 65 1011.9
20260504203000 68 0.0 0.0 0.00 0.00 0.00 68 1012.1
20260504201958 67 0.0 0.0 0.00 0.00 0.00 68 1012.2
20260504200959 67 0.0 0.0 0.00 0.00 0.00 69 1012.3
20260504200000 66 0.0 0.0 0.00 0.00 0.00 68 1012.4